FAST22 KSAN-

Flight info

Callsign FAST22
Flight time N/A
Altitude VFR
Route PATTERN
Aircraft F18H/M-VGDW/C

Departure

Time 2026-04-23 16:51
Airport San Diego International Airport (KSAN)

Arrival

Time N/A
Airport -
Time Latitude Longitude Altitude Speed Heading
2026-04-23 16:42 32.73444 -117.18492 19 ft 0 kts 15°
2026-04-23 16:45 32.73449 -117.18463 19 ft 10 kts 161°
2026-04-23 16:46 32.73397 -117.18407 19 ft 11 kts 160°
2026-04-23 16:46 32.73325 -117.18364 19 ft 14 kts 109°
2026-04-23 16:46 32.73294 -117.18239 18 ft 17 kts 106°
2026-04-23 16:46 32.73260 -117.18098 18 ft 19 kts 107°
2026-04-23 16:47 32.73223 -117.17948 17 ft 3 kts 106°
2026-04-23 16:47 32.73217 -117.17920 17 ft 26 kts 108°
2026-04-23 16:47 32.73154 -117.17660 18 ft 35 kts 107°
2026-04-23 16:47 32.73106 -117.17561 17 ft 0 kts 144°
2026-04-23 16:50 32.73086 -117.17545 17 ft 6 kts 147°
2026-04-23 16:50 32.73042 -117.17529 18 ft 7 kts 191°
2026-04-23 16:51 32.73046 -117.17678 16 ft 50 kts 284°
2026-04-23 16:51 32.73202 -117.18366 36 ft 119 kts 285°
2026-04-23 16:51 32.73498 -117.19512 250 ft 158 kts 288°
2026-04-23 16:51 32.73810 -117.20774 946 ft 163 kts 292°
2026-04-23 16:52 32.74618 -117.21314 1477 ft 139 kts
2026-04-23 16:52 32.75594 -117.20978 1723 ft 151 kts 34°
2026-04-23 16:52 32.75988 -117.20312 1962 ft 155 kts 77°
2026-04-23 16:52 32.75242 -117.18873 1927 ft 184 kts 156°
2026-04-23 16:53 32.74034 -117.18622 1606 ft 170 kts 179°
2026-04-23 16:53 32.73168 -117.18157 1418 ft 139 kts 63°
2026-04-23 16:53 32.73324 -117.18818 69 ft 183 kts 277°
2026-04-23 16:53 32.73621 -117.20010 22 ft 87 kts 288°
2026-04-23 16:54 32.73730 -117.20408 61 ft 85 kts 278°
2026-04-23 16:54 32.73875 -117.21238 447 ft 104 kts 285°
2026-04-23 16:54 32.74364 -117.21603 1119 ft 97 kts 10°
2026-04-23 16:54 32.75083 -117.21304 1491 ft 127 kts 39°
2026-04-23 16:55 32.75222 -117.20285 1769 ft 130 kts 107°
2026-04-23 16:55 32.74929 -117.19350 1973 ft 117 kts 116°
2026-04-23 16:55 32.74591 -117.18437 1885 ft 125 kts 116°
2026-04-23 16:55 32.74249 -117.17584 1356 ft 104 kts 134°
2026-04-23 16:56 32.73563 -117.17533 558 ft 112 kts 199°
2026-04-23 16:56 32.73159 -117.18179 39 ft 99 kts 283°
2026-04-23 16:56 32.73320 -117.18810 23 ft 66 kts 287°
2026-04-23 16:56 32.73441 -117.19251 19 ft 50 kts 285°
2026-04-23 16:57 32.73568 -117.19882 38 ft 111 kts 285°
2026-04-23 16:57 32.73869 -117.20957 306 ft 126 kts 316°
2026-04-23 16:57 32.74358 -117.20750 1486 ft 90 kts 75°
2026-04-23 16:57 32.74243 -117.19903 1767 ft 124 kts 104°
2026-04-23 16:58 32.74023 -117.18724 1881 ft 147 kts 106°
2026-04-23 16:58 32.73620 -117.17757 1861 ft 116 kts 138°
2026-04-23 16:58 32.73703 -117.17292 1714 ft 78 kts 313°
2026-04-23 16:58 32.73514 -117.17355 1291 ft 82 kts 61°
2026-04-23 16:59 32.73619 -117.17630 697 ft 90 kts 233°
2026-04-23 16:59 32.73225 -117.18222 92 ft 93 kts 256°
2026-04-23 16:59 32.73315 -117.18792 25 ft 72 kts 285°
2026-04-23 16:59 32.73499 -117.19593 43 ft 134 kts 286°
2026-04-23 17:00 32.74005 -117.20583 478 ft 147 kts 340°
2026-04-23 17:00 32.75054 -117.20557 1119 ft 159 kts 13°
2026-04-23 17:00 32.76147 -117.20191 1623 ft 176 kts 18°
2026-04-23 17:00 32.76943 -117.19261 2087 ft 172 kts 99°
2026-04-23 17:01 32.76474 -117.18017 2644 ft 170 kts 117°
2026-04-23 17:01 32.75942 -117.16674 2787 ft 186 kts 115°
2026-04-23 17:01 32.75379 -117.15274 2868 ft 190 kts 117°
2026-04-23 17:01 32.74774 -117.13859 2872 ft 192 kts 116°
2026-04-23 17:02 32.74283 -117.12442 2937 ft 176 kts 112°
2026-04-23 17:02 32.73859 -117.11147 2993 ft 159 kts 111°
2026-04-23 17:02 32.73453 -117.09915 2417 ft 168 kts 114°
2026-04-23 17:02 32.72967 -117.08609 1879 ft 173 kts 115°
2026-04-23 17:03 32.72257 -117.07437 1312 ft 177 kts 152°
2026-04-23 17:03 32.71189 -117.07529 1113 ft 156 kts 226°
2026-04-23 17:03 32.71041 -117.08640 1109 ft 128 kts 278°
2026-04-23 17:03 32.71145 -117.09632 1065 ft 119 kts 279°
2026-04-23 17:04 32.71318 -117.10596 1067 ft 113 kts 285°
2026-04-23 17:04 32.71593 -117.11395 1005 ft 104 kts 327°
2026-04-23 17:04 32.71991 -117.11967 799 ft 99 kts 247°
2026-04-23 17:04 32.71233 -117.12331 854 ft 136 kts 215°
2026-04-23 17:05 32.71170 -117.13387 871 ft 158 kts 330°
2026-04-23 17:05 32.71990 -117.13803 1043 ft 117 kts 297°
2026-04-23 17:05 32.72281 -117.14632 978 ft 108 kts 291°
2026-04-23 17:05 32.72524 -117.15428 849 ft 97 kts 288°
2026-04-23 17:06 32.72698 -117.16187 628 ft 91 kts 284°
2026-04-23 17:06 32.72846 -117.16844 394 ft 94 kts 295°
2026-04-23 17:06 32.73032 -117.17640 57 ft 93 kts 296°
2026-04-23 17:06 32.73183 -117.18248 23 ft 64 kts 286°
2026-04-23 17:07 32.73305 -117.18758 32 ft 80 kts 281°
2026-04-23 17:07 32.73319 -117.18851 47 ft 83 kts 279°
2026-04-23 17:07 32.73494 -117.19573 231 ft 112 kts 290°
2026-04-23 17:07 32.73886 -117.20487 655 ft 136 kts 329°
2026-04-23 17:08 32.74942 -117.20763 883 ft 174 kts 358°
2026-04-23 17:08 32.76157 -117.20601 1119 ft 180 kts 21°
2026-04-23 17:08 32.77027 -117.19537 1228 ft 191 kts 75°
2026-04-23 17:08 32.76858 -117.17986 1286 ft 196 kts 114°
2026-04-23 17:09 32.76206 -117.16555 1299 ft 191 kts 122°
2026-04-23 17:09 32.75490 -117.15233 1197 ft 179 kts 122°
2026-04-23 17:09 32.75027 -117.14016 1225 ft 138 kts 87°
2026-04-23 17:09 32.75506 -117.13991 1186 ft 141 kts 248°
2026-04-23 17:10 32.75326 -117.13715 1053 ft 148 kts
2026-04-23 17:10 32.75303 -117.14321 871 ft 154 kts 160°
2026-04-23 17:10 32.74989 -117.13397 1079 ft 121 kts 67°
2026-04-23 17:10 32.75662 -117.13177 1023 ft 103 kts 308°
2026-04-23 17:11 32.75431 -117.13774 1111 ft 100 kts 184°
2026-04-23 17:11 32.75139 -117.13143 1186 ft 113 kts 52°
2026-04-23 17:11 32.75936 -117.12970 1207 ft 138 kts 332°
2026-04-23 17:11 32.76341 -117.14022 1094 ft 161 kts 255°
2026-04-23 17:12 32.75626 -117.14881 1188 ft 138 kts 211°
2026-04-23 17:12 32.74818 -117.15453 1028 ft 126 kts 216°
2026-04-23 17:12 32.74134 -117.16090 1111 ft 124 kts 226°
2026-04-23 17:12 32.73572 -117.16990 1666 ft 137 kts 240°
2026-04-23 17:13 32.73214 -117.17883 2623 ft 107 kts 260°
2026-04-23 17:13 32.73270 -117.18754 1996 ft 135 kts 251°
2026-04-23 17:13 32.72719 -117.18143 610 ft 189 kts 98°
2026-04-23 17:13 32.73048 -117.17478 483 ft 113 kts 281°
2026-04-23 17:14 32.73174 -117.18217 25 ft 64 kts 287°
2026-04-23 17:14 32.73245 -117.18440 19 ft 16 kts 346°
2026-04-23 17:14 32.73317 -117.18433 20 ft 0 kts
2026-04-23 17:15 32.73357 -117.18500 20 ft 18 kts 285°
2026-04-23 17:15 32.73394 -117.18654 17 ft 21 kts 287°
2026-04-23 17:16 32.73479 -117.18705 17 ft 8 kts 22°